Starlink 30053

operational
NORAD ID: 56700 Int'l Des: 2023-067 Owner: SPXS Country: US Constellation: starlink
LEOCIRCULAR

Starlink 30053について

説明を読み込み中...

リアルタイム位置

3D地球を読み込み中...

次回通過

高度履歴

Altitude vs Time

uPlot chart will show altitude changes over time

軌道要素

1 56700U 23067N 25353.28157924 -.00001358 00000-0 -85449-4 0 9995
2 56700 43.0053 351.4603 0001000 278.2269 81.8460 15.02540099143565
Epoch: Dec 19, 2025 • Age: 13 hours

現在のステータス

高度 568.1 km
速度 7.58 km/s
衛星直下点 -34.15°S, 75.51°W
打ち上げ日 May 19, 2023
運用期間 2.5 years
タイプ internet

技術仕様

分類 Payload
質量 730.00 kg
乾燥質量 700.00 kg
総質量 730.00 kg
長さ 0.30 m
直径 4.10 m
スパン 29.00 m
形状 Box + pan
製造者 SPXS
バスタイプ Starlink V2M
フェーズステータス In Orbit
所有者/国 SPXS/US

大規模コンステレーション

Loading constellations...